K0SNA Weather Reports


Display with metric or nautical units.
time (UTC)temp
F
wind
direction
speed
MPH
gust
MPH
rain 1hr
in
rain 24hr
in
rain mn
in
humidity
%
barometer
mb
20260503060238 59 259 7.0 9.0 0.00 0.00 0.00 46 1007.9
20260503054726 57 229 3.0 7.0 0.00 0.00 0.00 47 1008.0
20260503054223 57 220 2.0 6.0 0.00 0.00 0.00 48 1007.9
20260503053720 57 231 3.0 3.0 0.00 0.00 0.00 47 1008.0
20260503053219 57 208 3.0 3.0 0.00 0.00 0.00 47 1008.1
20260503052715 57 205 1.0 9.0 0.00 0.00 0.00 47 1008.4
20260503052212 57 226 4.0 5.0 0.00 0.00 0.00 47 1008.3
20260503051707 57 224 4.0 5.0 0.00 0.00 0.00 46 1008.2
20260503051205 57 219 4.0 5.0 0.00 0.00 0.00 46 1008.2
20260503050701 58 183 2.0 7.0 0.00 0.00 0.00 46 1008.1
20260503050158 58 198 0.0 2.0 0.00 0.00 0.00 46 1008.3
20260503045655 58 224 3.0 6.0 0.00 0.00 0.00 45 1008.3
20260503045153 58 218 1.0 2.0 0.00 0.00 0.00 45 1008.2
20260503044649 58 202 2.0 3.0 0.00 0.00 0.00 45 1008.4
20260503044147 58 180 1.0 6.0 0.00 0.00 0.00 45 1008.5
20260503043643 59 207 2.0 7.0 0.00 0.00 0.00 44 1008.5
20260503043140 58 210 2.0 2.0 0.00 0.00 0.00 45 1008.5
20260503042636 58 223 3.0 3.0 0.00 0.00 0.00 45 1008.6
20260503042132 58 177 1.0 3.0 0.00 0.00 0.00 46 1008.6
20260503041629 58 215 1.0 2.0 0.00 0.00 0.00 45 1008.5
20260503041127 58 212 1.0 2.0 0.00 0.00 0.00 46 1008.8
20260503040624 58 192 1.0 1.0 0.00 0.00 0.00 45 1009.0
20260503040122 59 214 3.0 3.0 0.00 0.00 0.00 45 1008.8
20260503035618 59 199 1.0 3.0 0.00 0.00 0.00 44 1008.9
20260503035116 59 202 2.0 2.0 0.00 0.00 0.00 45 1009.0
20260503034613 59 201 1.0 2.0 0.00 0.00 0.00 45 1009.0
20260503034110 59 195 0.0 0.0 0.00 0.00 0.00 45 1009.2
20260503033607 59 200 0.0 0.0 0.00 0.00 0.00 46 1009.3
20260503033105 59 193 0.0 0.0 0.00 0.00 0.00 45 1009.4
20260503032603 59 192 0.0 0.0 0.00 0.00 0.00 44 1009.5
20260503032101 60 201 0.0 1.0 0.00 0.00 0.00 44 1009.7
20260503031558 60 193 0.0 0.0 0.00 0.00 0.00 43 1009.9
20260503031056 61 193 0.0 2.0 0.00 0.00 0.00 41 1009.9
20260503030551 61 209 1.0 2.0 0.00 0.00 0.00 40 1010.1
20260503030049 62 206 3.0 5.0 0.00 0.00 0.00 39 1010.1
20260503025545 62 199 1.0 6.0 0.00 0.00 0.00 39 1010.4
20260503025043 62 218 3.0 8.0 0.00 0.00 0.00 39 1010.4
20260503024539 62 215 3.0 6.0 0.00 0.00 0.00 39 1010.5
20260503024037 62 215 3.0 6.0 0.00 0.00 0.00 39 1010.5
20260503023533 62 206 1.0 6.0 0.00 0.00 0.00 40 1010.5
20260503023031 62 208 1.0 2.0 0.00 0.00 0.00 41 1010.6
20260503022527 62 204 1.0 2.0 0.00 0.00 0.00 40 1010.7
20260503022021 62 203 0.0 3.0 0.00 0.00 0.00 40 1010.6
20260503021518 62 207 2.0 2.0 0.00 0.00 0.00 39 1010.9
20260503021015 63 217 1.0 5.0 0.00 0.00 0.00 38 1010.9
20260503020513 63 255 4.0 6.0 0.00 0.00 0.00 37 1010.8
20260503020009 63 231 4.0 5.0 0.00 0.00 0.00 38 1010.8
20260503015506 63 243 5.0 8.0 0.00 0.00 0.00 38 1010.9
20260503015003 63 222 3.0 5.0 0.00 0.00 0.00 38 1010.9
20260503014459 63 273 5.0 6.0 0.00 0.00 0.00 37 1010.9
20260503013957 63 242 3.0 6.0 0.00 0.00 0.00 36 1010.8
20260503013454 63 256 3.0 9.0 0.00 0.00 0.00 35 1010.8
20260503012951 63 290 3.0 5.0 0.00 0.00 0.00 36 1010.8
20260503012449 64 242 2.0 3.0 0.00 0.00 0.00 35 1010.7
20260503011945 64 262 4.0 5.0 0.00 0.00 0.00 35 1010.5
20260503011442 64 248 2.0 8.0 0.00 0.00 0.00 35 1010.8
20260503010939 64 232 3.0 8.0 0.00 0.00 0.00 35 1011.0
20260503010436 64 275 3.0 7.0 0.00 0.00 0.00 35 1010.8
20260503005933 64 221 5.0 10.0 0.00 0.00 0.00 36 1011.0
20260503005430 64 243 4.0 5.0 0.00 0.00 0.00 36 1010.9
20260503004927 63 236 2.0 3.0 0.00 0.00 0.00 38 1011.0
20260503004424 63 226 1.0 5.0 0.00 0.00 0.00 38 1010.9
20260503003921 63 208 0.0 2.0 0.00 0.00 0.00 38 1011.0
20260503003418 63 283 5.0 7.0 0.00 0.00 0.00 38 1011.2
20260503002915 63 246 1.0 5.0 0.00 0.00 0.00 39 1011.3
20260503002412 63 207 7.0 10.0 0.00 0.00 0.00 40 1011.4
20260503001908 64 332 5.0 9.0 0.00 0.00 0.00 38 1011.3
20260503001405 64 217 3.0 7.0 0.00 0.00 0.00 37 1011.1
20260503000903 64 243 3.0 6.0 0.00 0.00 0.00 37 1011.2
20260503000400 64 277 9.0 11.0 0.00 0.00 0.00 37 1011.3
20260502235856 64 252 5.0 9.0 0.00 0.00 0.00 37 1011.4
20260502235353 64 287 5.0 9.0 0.00 0.00 0.00 37 1011.5
20260502234851 65 280 8.0 14.0 0.00 0.00 0.00 36 1011.6
20260502234347 65 199 1.0 3.0 0.00 0.00 0.00 35 1011.4
20260502233844 65 237 2.0 2.0 0.00 0.00 0.00 35 1011.3
20260502233340 65 235 2.0 2.0 0.00 0.00 0.00 34 1011.2
20260502232837 65 354 3.0 6.0 0.00 0.00 0.00 34 1011.3
20260502232334 66 267 9.0 14.0 0.00 0.00 0.00 33 1011.4
20260502231830 66 250 3.0 7.0 0.00 0.00 0.00 32 1011.3
20260502231328 66 208 3.0 9.0 0.00 0.00 0.00 32 1011.4
20260502230826 66 208 2.0 5.0 0.00 0.00 0.00 32 1011.4
20260502230324 66 215 3.0 5.0 0.00 0.00 0.00 32 1011.3
20260502225820 66 249 4.0 6.0 0.00 0.00 0.00 32 1011.4
20260502225317 66 221 3.0 6.0 0.00 0.00 0.00 32 1011.2
20260502224814 67 234 8.0 9.0 0.00 0.00 0.00 32 1011.5
20260502224310 66 206 2.0 5.0 0.00 0.00 0.00 32 1011.3
20260502223808 66 210 3.0 6.0 0.00 0.00 0.00 31 1011.4
20260502223306 66 228 7.0 7.0 0.00 0.00 0.00 31 1011.7
20260502222803 66 283 4.0 9.0 0.00 0.00 0.00 32 1011.7
20260502222301 66 213 1.0 7.0 0.00 0.00 0.00 31 1011.9
20260502221756 66 203 8.0 11.0 0.00 0.00 0.00 31 1011.7
20260502221252 66 205 5.0 6.0 0.00 0.00 0.00 32 1011.8
20260502220749 66 208 6.0 8.0 0.00 0.00 0.00 32 1012.0
20260502220245 66 229 3.0 6.0 0.00 0.00 0.00 32 1012.0
20260502215742 66 202 5.0 6.0 0.00 0.00 0.00 31 1012.0
20260502215239 66 231 2.0 7.0 0.00 0.00 0.00 33 1012.1
20260502214737 66 243 5.0 10.0 0.00 0.00 0.00 32 1012.2
20260502214235 66 219 3.0 6.0 0.00 0.00 0.00 32 1012.2
20260502213731 66 295 5.0 13.0 0.00 0.00 0.00 31 1012.2
20260502213228 66 241 4.0 8.0 0.00 0.00 0.00 31 1012.5
20260502212726 67 306 5.0 9.0 0.00 0.00 0.00 31 1012.4
20260502212224 68 279 5.0 7.0 0.00 0.00 0.00 31 1012.5
20260502211720 68 212 3.0 6.0 0.00 0.00 0.00 30 1012.6
20260502211217 67 239 5.0 7.0 0.00 0.00 0.00 30 1012.7
20260502210714 66 324 3.0 8.0 0.00 0.00 0.00 31 1012.8
20260502210211 66 316 6.0 7.0 0.00 0.00 0.00 31 1013.1
20260502205709 67 248 4.0 10.0 0.00 0.00 0.00 30 1012.9
20260502205205 67 238 2.0 6.0 0.00 0.00 0.00 31 1013.2
20260502204702 66 209 3.0 7.0 0.00 0.00 0.00 31 1013.3
20260502204200 65 269 9.0 10.0 0.00 0.00 0.00 31 1013.3
20260502203657 66 277 4.0 10.0 0.00 0.00 0.00 32 1013.4
20260502203155 66 243 6.0 11.0 0.00 0.00 0.00 32 1013.5
20260502202648 65 223 1.0 10.0 0.00 0.00 0.00 31 1013.5
20260502202147 66 199 5.0 7.0 0.00 0.00 0.00 31 1013.9
20260502201644 66 240 8.0 10.0 0.00 0.00 0.00 30 1014.0
20260502201140 66 215 2.0 5.0 0.00 0.00 0.00 31 1014.1
20260502200636 65 208 2.0 6.0 0.00 0.00 0.00 33 1014.2
20260502200133 64 294 5.0 11.0 0.00 0.00 0.00 33 1014.2
20260502195632 64 233 7.0 10.0 0.00 0.00 0.00 32 1014.5
20260502195127 63 214 1.0 7.0 0.00 0.00 0.00 33 1014.5
20260502194624 64 266 7.0 10.0 0.00 0.00 0.00 31 1014.8
20260502194121 63 287 3.0 10.0 0.00 0.00 0.00 33 1014.7
20260502193617 63 223 7.0 20.0 0.00 0.00 0.00 31 1014.8
20260502193114 63 272 3.0 9.0 0.00 0.00 0.00 32 1014.9
20260502192609 63 226 4.0 8.0 0.00 0.00 0.00 32 1015.0
20260502192108 64 217 7.0 9.0 0.00 0.00 0.00 32 1015.3
20260502191604 62 301 4.0 7.0 0.00 0.00 0.00 33 1015.4
20260502191102 63 246 7.0 9.0 0.00 0.00 0.00 33 1015.3
20260502190559 62 204 4.0 7.0 0.00 0.00 0.00 32 1015.3
20260502190050 63 257 7.0 9.0 0.00 0.00 0.00 32 1015.3
20260502185545 62 239 6.0 7.0 0.00 0.00 0.00 33 1015.7
20260502185042 62 235 3.0 6.0 0.00 0.00 0.00 33 1015.8
20260502184538 60 209 5.0 8.0 0.00 0.00 0.00 33 1015.9
20260502184034 61 298 5.0 11.0 0.00 0.00 0.00 34 1015.9
20260502183531 60 307 5.0 11.0 0.00 0.00 0.00 33 1016.1
20260502183027 61 339 3.0 8.0 0.00 0.00 0.00 33 1016.2
20260502182521 61 222 5.0 10.0 0.00 0.00 0.00 34 1016.3
20260502182012 60 205 5.0 10.0 0.00 0.00 0.00 34 1016.2
20260502181510 60 267 4.0 7.0 0.00 0.00 0.00 33 1016.4
20260502181009 60 233 3.0 6.0 0.00 0.00 0.00 34 1016.5
20260502180505 60 222 5.0 6.0 0.00 0.00 0.00 35 1016.6
20260502170424 58 237 6.0 9.0 0.00 0.00 0.00 34 1017.8
20260502163908 57 185 1.0 5.0 0.00 0.00 0.00 37 1017.9
20260502163404 57 258 6.0 8.0 0.00 0.00 0.00 35 1018.0
20260502162902 57 245 3.0 3.0 0.00 0.00 0.00 36 1018.2
20260502162358 56 310 5.0 9.0 0.00 0.00 0.00 37 1018.3
20260502161855 57 308 7.0 11.0 0.00 0.00 0.00 37 1018.3
20260502161351 55 200 2.0 5.0 0.00 0.00 0.00 37 1018.4
20260502160849 56 311 6.0 10.0 0.00 0.00 0.00 37 1018.4
20260502160348 55 307 4.0 6.0 0.00 0.00 0.00 38 1018.3
20260502152328 55 265 3.0 5.0 0.00 0.00 0.00 41 1018.5
20260502151826 54 258 6.0 10.0 0.00 0.00 0.00 43 1018.8
20260502151322 54 258 3.0 6.0 0.00 0.00 0.00 42 1018.9
20260502150820 53 205 2.0 7.0 0.00 0.00 0.00 45 1018.7
20260502150316 52 233 3.0 6.0 0.00 0.00 0.00 47 1019.2
20260502130705 43 242 2.0 5.0 0.00 0.00 0.00 61 1019.5
20260502130202 43 228 2.0 3.0 0.00 0.00 0.00 61 1019.6
20260502123648 41 195 1.0 3.0 0.00 0.00 0.00 65 1019.5
20260502123145 41 190 1.0 2.0 0.00 0.00 0.00 66 1019.6
20260502122641 40 187 0.0 0.0 0.00 0.00 0.00 66 1019.4
20260502122138 40 181 0.0 3.0 0.00 0.00 0.00 66 1019.4
20260502121636 40 202 1.0 1.0 0.00 0.00 0.00 66 1019.5
20260502121133 39 189 0.0 0.0 0.00 0.00 0.00 69 1019.5
20260502120630 39 193 1.0 1.0 0.00 0.00 0.00 68 1019.3
20260502120127 39 187 0.0 0.0 0.00 0.00 0.00 69 1019.2
20260502115624 38 236 3.0 3.0 0.00 0.00 0.00 70 1019.2
20260502115120 38 196 2.0 3.0 0.00 0.00 0.00 71 1019.2
20260502114616 37 222 2.0 3.0 0.00 0.00 0.00 71 1019.2
20260502114114 37 221 1.0 2.0 0.00 0.00 0.00 71 1019.1
20260502113611 37 202 1.0 5.0 0.00 0.00 0.00 72 1019.0
20260502113110 36 203 1.0 2.0 0.00 0.00 0.00 73 1019.1
20260502112607 36 196 0.0 0.0 0.00 0.00 0.00 75 1018.9
20260502112104 36 200 0.0 0.0 0.00 0.00 0.00 74 1018.8
20260502111602 36 202 0.0 1.0 0.00 0.00 0.00 75 1019.1
20260502111059 36 204 1.0 2.0 0.00 0.00 0.00 74 1019.2
20260502110556 36 203 1.0 1.0 0.00 0.00 0.00 74 1018.8
20260502110054 37 203 1.0 1.0 0.00 0.00 0.00 73 1018.8
20260502105551 36 204 1.0 2.0 0.00 0.00 0.00 74 1019.0
20260502105048 36 210 2.0 2.0 0.00 0.00 0.00 74 1019.0
20260502104545 37 210 3.0 3.0 0.00 0.00 0.00 73 1018.9
20260502104043 37 212 1.0 2.0 0.00 0.00 0.00 73 1019.0
20260502103540 37 213 2.0 2.0 0.00 0.00 0.00 72 1019.0
20260502103038 37 205 1.0 3.0 0.00 0.00 0.00 72 1019.0
20260502102534 37 206 1.0 2.0 0.00 0.00 0.00 72 1019.1
20260502102032 37 211 1.0 2.0 0.00 0.00 0.00 72 1019.0
20260502101529 37 210 1.0 2.0 0.00 0.00 0.00 72 1019.0
20260502101028 37 205 1.0 2.0 0.00 0.00 0.00 71 1019.0
20260502100526 37 213 2.0 2.0 0.00 0.00 0.00 71 1018.8
20260502091500 37 204 1.0 1.0 0.00 0.00 0.00 72 1018.9
20260502090958 37 205 1.0 2.0 0.00 0.00 0.00 71 1018.8
20260502090454 38 202 2.0 2.0 0.00 0.00 0.00 70 1019.0
20260502071349 40 215 2.0 2.0 0.00 0.00 0.00 65 1019.0
20260502070847 40 212 1.0 1.0 0.00 0.00 0.00 65 1019.0
20260502070344 40 207 1.0 2.0 0.00 0.00 0.00 65 1019.1
20260502065844 40 215 2.0 2.0 0.00 0.00 0.00 65 1019.0
20260502065341 40 202 0.0 1.0 0.00 0.00 0.00 66 1019.1
20260502064839 40 204 0.0 1.0 0.00 0.00 0.00 66 1019.4
20260502064337 40 221 0.0 1.0 0.00 0.00 0.00 67 1019.2
20260502063833 40 201 1.0 1.0 0.00 0.00 0.00 66 1019.1
20260502063331 40 200 1.0 1.0 0.00 0.00 0.00 66 1019.2
20260502062828 41 198 0.0 1.0 0.00 0.00 0.00 65 1019.3
20260502062326 41 201 1.0 1.0 0.00 0.00 0.00 63 1019.3
20260502061825 41 203 0.0 0.0 0.00 0.00 0.00 63 1019.4